This demonstration page uses our WeatherBlox Daily Observations layout. Learn more.

Left ArrowRight Arrow

39.51506, -84.39828

Hourly Observations for March 12, 2015

Temp ( °F °C ) Dew Point ( °F °C ) Humidity (%) Winds ( mph kmh ) Pressure ( in mb ) Visibility ( mi km ) Precip ( " mm )
12:15 am 00:15 Clear with Mist and Fog 40 4.7 37 2.7 87 87 NNE 5 7 30.45 1031 2 3 N/A
12:35 am 00:35 Mostly Cloudy with Mist and Fog 39 4 36 2 87 87 NNE 5 7 30.45 1031 2 3 N/A
12:55 am 00:55 Mostly Cloudy with Mist and Fog 39 4 36 2.1 88 88 NE 3 6 30.45 1031 2 3 N/A
1:15 am 01:15 Mostly Cloudy with Mist and Fog 38 3.5 35 1.5 87 87 N N/A 30.45 1031 2 2 N/A
1:35 am 01:35 Mostly Cloudy with Fog 37 2.6 33 0.8 88 88 N N/A 30.45 1031 0 0 N/A
1:55 am 01:55 Mostly Cloudy with Fog 37 2.6 33 0.8 88 88 N N/A 30.45 1031 1 1 N/A
2:15 am 02:15 Cloudy with Fog 37 2.6 34 0.9 89 89 NNE 3 6 30.45 1031 1 1 N/A
2:35 am 02:35 Cloudy with Fog 37 2.6 34 1 89 89 NE 8 13 30.48 1032 1 1 N/A
2:55 am 02:55 Cloudy with Fog 37 2.6 34 1 89 89 NE 6 9 30.48 1032 1 1 N/A
3:15 am 03:15 Cloudy with Fog 37 2.6 34 1 89 89 NE 7 11 30.48 1032 1 1 N/A
3:35 am 03:35 Cloudy with Fog 37 2.6 34 1 89 89 NE 7 11 30.48 1032 1 1 N/A
3:55 am 03:55 Cloudy with Mist and Fog 37 2.6 34 1 89 89 NE 5 7 30.48 1032 1 1 N/A
4:15 am 04:15 Cloudy with Mist and Fog 37 2.6 34 1 89 89 NE 3 6 30.50 1033 1 1 N/A
4:35 am 04:35 Cloudy with Fog 36 2.1 33 0.5 89 89 NNE 5 7 30.50 1033 1 1 N/A
4:55 am 04:55 Cloudy with Fog 36 2 33 0.3 89 89 NNE 5 7 30.50 1033 0 0 N/A
5:15 am 05:15 Cloudy with Fog 35 1.5 32 undefined 90 90 NNE 5 7 30.50 1033 0 0 N/A
5:35 am 05:35 Cloudy with Fog 34 1.2 32 -0.1 91 91 NNE 5 7 30.53 1034 0 0 N/A
5:55 am 05:55 Cloudy with Fog 34 1.2 32 -0.1 91 91 NNE 3 6 30.53 1034 0 0 N/A
6:15 am 06:15 Cloudy with Fog 34 1.2 32 -0.1 91 91 NNE 5 7 30.53 1034 0 0 N/A
6:35 am 06:35 Cloudy with Fog 34 1.2 32 -0.1 91 91 NE 5 7 30.53 1034 0 0 N/A
6:55 am 06:55 Cloudy with Fog 34 1.2 32 -0.1 91 91 NNE 5 7 30.53 1034 0 0 N/A
7:15 am 07:15 Cloudy with Light Snow 34 1.2 32 -0.1 91 91 NNE 6 9 30.56 1035 0 0 N/A
7:35 am 07:35 Cloudy with Light Snow 34 1.2 32 -0.1 91 91 ENE 5 7 30.56 1035 0 0 N/A
7:55 am 07:55 Cloudy with Fog 34 1.2 32 -0.1 91 91 NE 6 9 30.56 1035 0 0 N/A
8:15 am 08:15 Cloudy with Fog 34 1.2 32 -0.1 91 91 NE 6 9 30.56 1035 5 8 N/A
8:35 am 08:35 Cloudy with Light Snow 34 1.2 32 -0.1 91 91 NE 6 9 30.56 1035 0 0 N/A
8:55 am 08:55 Cloudy with Fog 34 1.2 32 -0.1 91 91 NE 6 9 30.56 1035 1 1 N/A
9:15 am 09:15 Cloudy with Mist and Fog 34 1.2 32 -0.1 91 91 ENE 6 9 30.56 1035 1 2 N/A
9:35 am 09:35 Mostly Cloudy with Mist and Fog 36 2.2 33 0.6 89 89 ENE 6 9 30.56 1035 2 3 N/A
9:55 am 09:55 Sunny with Mist and Fog 37 2.6 34 1 89 89 NE 6 9 30.56 1035 3 5 N/A
10:15 am 10:15 Sunny with Mist and Fog 39 4 37 2.5 90 90 ENE 8 13 30.56 1035 5 8 N/A
10:35 am 10:35 Sunny 43 5.9 35 1.5 74 74 E 9 15 30.59 1036 10 16 N/A
10:55 am 10:55 Sunny 44 6.8 30 -1.1 57 57 E 13 20 30.59 1036 10 16 N/A
11:15 am 11:15 Sunny 49 9.5 32 undefined 52 52 ESE 10 17 30.56 1035 10 16 N/A
11:35 am 11:35 Sunny 49 9.6 30 -1.3 47 47 E 9 15 30.56 1035 10 16 N/A
11:55 am 11:55 Sunny 49 9.6 28 -2 45 45 E 9 15 30.56 1035 10 16 N/A
12:15 pm 12:15 Sunny 52 11 28 -2.5 39 39 E 13 20 30.56 1035 10 16 N/A
12:35 pm 12:35 Sunny 55 12.5 29 -1.9 37 37 ESE 12 19 30.56 1035 10 16 N/A
12:55 pm 12:55 Sunny 55 12.5 25 -3.7 32 32 ESE 14 22 30.56 1035 10 16 N/A
1:15 pm 13:15 Sunny 55 12.5 25 -4 32 32 E 8 13 30.56 1035 10 16 N/A
1:35 pm 13:35 Sunny 57 13.7 22 -5.3 27 27 E 10 17 30.53 1034 10 16 N/A
1:55 pm 13:55 Sunny 56 13.6 20 -6.8 24 24 E 12 19 30.53 1034 10 16 N/A
2:15 pm 14:15 Sunny 57 13.8 18 -7.8 22 22 E 10 17 30.50 1033 10 16 N/A
2:35 pm 14:35 Sunny 57 13.8 17 -8.1 21 21 E 12 19 30.50 1033 10 16 N/A
2:55 pm 14:55 Sunny 59 15.2 18 -7.7 20 20 E 13 20 30.50 1033 10 16 N/A
3:15 pm 15:15 Sunny 59 15.2 20 -6.7 22 22 ENE 9 15 30.48 1032 10 16 N/A
3:35 pm 15:35 Sunny 57 13.8 21 -6 25 25 E 13 20 30.48 1032 10 16 N/A
3:55 pm 15:55 Sunny 60 15.3 24 -4.4 26 26 E 13 20 30.48 1032 10 16 N/A
4:15 pm 16:15 Sunny 60 15.3 24 -4.5 25 25 E 12 19 30.48 1032 7 11 N/A
4:35 pm 16:35 Sunny 60 15.3 25 -4.1 26 26 E 13 20 30.48 1032 7 11 N/A
4:55 pm 16:55 Hazy 60 15.3 25 -3.8 27 27 E 12 19 30.48 1032 4 6 N/A
5:15 pm 17:15 Sunny 60 15.3 24 -4.6 25 25 E 14 22 30.45 1031 10 16 N/A
5:35 pm 17:35 Sunny 60 15.3 24 -4.6 25 25 E 10 17 30.45 1031 10 16 N/A
5:55 pm 17:55 Sunny 59 15 22 -5.3 24 24 E 14 22 30.45 1031 10 16 N/A
6:15 pm 18:15 Sunny 60 15.3 24 -4.6 25 25 E 14 22 30.45 1031 10 16 N/A
6:35 pm 18:35 Sunny 57 13.8 22 -5.5 26 26 E 10 17 30.45 1031 10 16 N/A
6:55 pm 18:55 Sunny 57 13.8 22 -5.6 26 26 ENE 10 17 30.45 1031 10 16 N/A
7:15 pm 19:15 Sunny 57 13.8 24 -4.3 28 28 E 7 11 30.45 1031 10 16 N/A
7:35 pm 19:35 Sunny 55 12.5 28 -2.3 36 36 ENE 8 13 30.45 1031 10 16 N/A
7:55 pm 19:55 Clear 55 12.5 26 -3.2 34 34 ENE 10 17 30.45 1031 10 16 N/A
8:15 pm 20:15 Clear 49 9.6 26 -3.6 40 40 ENE 8 13 30.45 1031 10 16 N/A
8:35 pm 20:35 Clear 49 9.6 26 -3.4 40 40 NE 5 7 30.45 1031 10 16 N/A
8:55 pm 20:55 Clear 49 9.6 29 -1.8 45 45 NE 7 11 30.45 1031 10 16 N/A
9:15 pm 21:15 Clear 49 9.6 29 -1.4 47 47 ENE 9 15 30.45 1031 10 16 N/A
9:35 pm 21:35 Clear 48 8.9 30 -1.3 49 49 NE 8 13 30.42 1030 10 16 N/A
9:55 pm 21:55 Clear 49 9.6 31 -0.8 49 49 ENE 8 13 30.42 1030 10 16 N/A
10:15 pm 22:15 Clear 47 8.2 29 -1.6 50 50 NE 7 11 30.42 1030 10 16 N/A
10:35 pm 22:35 Clear 47 8.2 28 -2.2 48 48 NE 5 7 30.42 1030 10 16 N/A
10:55 pm 22:55 Clear 44 6.8 27 -2.8 51 51 NE 6 9 30.45 1031 10 16 N/A
11:15 pm 23:15 Clear 44 6.4 26 -3.1 51 51 ENE 5 7 30.45 1031 10 16 N/A
11:35 pm 23:35 Clear 43 6.2 27 -3 52 52 NE 5 7 30.45 1031 10 16 N/A
11:55 pm 23:55 Clear 43 6.1 26 -3.1 52 52 NNE 5 7 30.45 1031 10 16 N/A

Powered by AerisWeather